User: anonymous
Location: Oshawa
(43.9000°N, 78.8670°W)
Time: 18:11:46
(UTC-04:00)
Language:

Thor Agena Rocket - Orbit

View from above orbital plane
View from above orbital plane
View from above satellite
View from above satellite

Ground track
Ground track

The orbit data is extracted from the following two-line orbital elements,

1 00733U 64002A   14106.41882505  .00000242  00000-0  10760-3 0  2066
2 00733 098.9968 223.6404 0032993 304.9550 096.2573 14.31826980616600
Epoch (UTC): 16 April 2014 10:03:06
Eccentricity: 0.0032993
inclination: 98.9968°
perigee height: 762 km
apogee height: 809 km
right ascension of ascending node: 223.6404°
argument of perigee: 304.9550°
revolutions per day: 14.31826980
mean anomaly at epoch: 96.2573°
orbit number at epoch: 61660

The dashed part of the orbit path shows where the satellite is in the earth's shadow,  

DLR